Whiting Fld NAS, FL

11:25 AM CST on November 17, 2019 (GMT -0600)
Whiting Field Naval Air Station (North)

Weather History for KNSE - September, 2019

Change the Weather History Date:

Sunday, September 15, 2019

  Actual Average Record
Temperature  
Mean Temperature 82 °F -  
Max Temperature 93 °F 84 °F 93 °F (2005)
Min Temperature 72 °F 67 °F 57 °F (2015)
Cooling Degree Days 18    
Growing Degree Days 32 (Base 50)    
Moisture  
Dew Point -    
Average Humidity    
Maximum Humidity    
Minimum Humidity    
Precipitation  
Precipitation 0.00 in - - ()
Sea Level Pressure  
Sea Level Pressure 29.99 in    
Wind  
Wind Speed 5 mph (ENE)    
Max Wind Speed 10 mph    
Max Gust Speed 20 mph    
Visibility 10 miles    
Events      
Averages and records for this station are not official NWS values.
T = Trace of Precipitation, MM = Missing Value Source: NWS Daily Summary

Daily Weather History Graph

Daily Weather History Graph

Search for Another Location

Airport or City:

Astronomy

Sep. 15, 2019 Rise Set
Actual Time 6:32 AM CDT 6:53 PM CDT
Civil Twilight 6:08 AM CDT 7:18 PM CDT
Nautical Twilight 5:39 AM CDT 7:46 PM CDT
Astronomical Twilight 5:11 AM CDT 8:14 PM CDT
Moon 8:05 PM CDT (9/15) 7:40 AM CDT (9/15)
Length of Visible Light 13h 09m
Length of Day
12h 21m
Full, 98% of the Moon is Illuminated
Sep 15
Full
Sep 21
Last Quarter
Sep 28
New
Oct 5
First Quarter
Oct 13
Full

Hourly Weather History & Observations

Time (CDT) Temp. Dew Point Humidity Pressure Visibility Wind Dir Wind Speed Gust Speed Precip Events Conditions
12:56 AM 75.9 °F - N/A% 30.01 in 10.0 mi Variable 3.5 mph - N/A   Clear
1:56 AM 75.0 °F - N/A% 30.01 in 10.0 mi NNE 3.5 mph - N/A   Clear
2:56 AM 75.0 °F - N/A% 30.00 in 10.0 mi NNE 4.6 mph - N/A   Clear
3:56 AM 75.0 °F - N/A% 30.00 in 10.0 mi NE 3.5 mph - N/A   Clear
4:56 AM 73.0 °F - N/A% 30.00 in 10.0 mi NE 4.6 mph - N/A   Clear
5:56 AM 73.0 °F - N/A% 30.02 in 10.0 mi NE 4.6 mph - N/A   Clear
6:56 AM 72.0 °F - N/A% 30.03 in 10.0 mi NE 3.5 mph - N/A   Clear
7:56 AM 73.9 °F - N/A% 30.04 in 10.0 mi NE 3.5 mph - N/A   Clear
8:56 AM 78.1 °F - N/A% 30.03 in 10.0 mi Variable 6.9 mph - N/A   Clear
9:56 AM 81.0 °F - N/A% 30.03 in 10.0 mi Variable 6.9 mph - N/A   Clear
10:56 AM 86.0 °F - N/A% 30.02 in 10.0 mi East 9.2 mph - N/A   Clear
11:56 AM 87.1 °F - N/A% 30.01 in 10.0 mi East 10.4 mph - N/A   Clear
12:56 PM 89.1 °F - N/A% 29.98 in 10.0 mi ENE 8.1 mph 17.3 mph N/A   Clear
1:56 PM 91.9 °F - N/A% 29.97 in 10.0 mi ENE 10.4 mph 19.6 mph N/A   Clear
2:56 PM 93.0 °F - N/A% 29.94 in 10.0 mi ENE 9.2 mph - N/A   Partly Cloudy
3:56 PM 93.0 °F - N/A% 29.94 in 10.0 mi Variable 6.9 mph - N/A   Clear
4:56 PM 90.0 °F - N/A% 29.93 in 10.0 mi East 5.8 mph - N/A   Clear
5:56 PM 89.1 °F - N/A% 29.94 in 10.0 mi East 4.6 mph - N/A   Clear
6:56 PM 82.0 °F - N/A% 29.94 in 10.0 mi Calm Calm - N/A   Clear
7:56 PM 77.0 °F - N/A% 29.95 in 10.0 mi Calm Calm - N/A   Clear
8:56 PM 75.0 °F - N/A% 29.97 in 10.0 mi ENE 3.5 mph - N/A   Clear
9:56 PM 73.0 °F - N/A% 29.97 in 10.0 mi Calm Calm - N/A   Clear
10:56 PM 72.0 °F - N/A% 29.97 in 10.0 mi Calm Calm - N/A   Clear